Content
SEND FEEDBACK

Daily
Averages
Monthly
Summary
United States of America

VIENNA, MISSOURI


Home > North America > United States > Missouri
Elevation: 770 feet     Latitude: 38 12N     Longitude: 091 58W

WEATHER
 
SELECT A DAY
Number of Records: 204,107;   Date Range: 1/1/95 - 10/1/14
 
SHARE

PRINT THIS DATA

[ ← Previous Day ]
WEATHER ALMANAC - JANUARY 3, 2013
[ Next Day → ]
[ °C ]   °F
Weather ElementAverageHighLow
Temperature27.1 °F36 °F (2:53 pm)16 °F (6:53 am)
Dewpoint20.4 °F25 °F (11:53 am)14 °F (1:43 am)
Humidity76.6 %92 % (5:53 am)64 % (2:53 pm)
Barometer30.34 in30.41 in (6:53 pm)30.21 in (1:43 am)
Wind Speed6.8 mph11.5 mph (12:53 pm)
Weather ElementAverage
Visibility9.1 mi
Wind DirectionWSW (239.6 °)

Weather ElementTotal
Precipitation---
Heating Degree Days39 (Base 65)
Averaged from 27 records on January 3, 2013
WEATHER CONDITIONS BREAKOUT
WIND DIRECTION BREAKOUT
WEATHER BY HOUR - JANUARY 3, 2013
[ °C ]   °F
Local TimeTemperatureDewpointHumidityBarometerVisibilityWind DirectionWind SpeedGust SpeedPrecipitationEventsConditions
1:43 AM19.4 °F14.0 °F80 %30.21 in10.0 miSW (230°)6.9 mphScattered Clouds
1:53 AM19.9 °F14.0 °F78 %30.25 in10.0 miWSW (250°)6.9 mphClear
2:29 AM23.0 °F17.6 °F80 %30.22 in10.0 miWest (280°)6.9 mphMostly Cloudy
2:53 AM24.1 °F18.0 °F77 %30.26 in10.0 miWNW (290°)6.9 mphScattered Clouds
3:53 AM21.9 °F17.1 °F82 %30.26 in10.0 miWNW (290°)5.8 mphClear
4:53 AM21.9 °F18.0 °F85 %30.27 in8.0 miWNW (300°)9.2 mphClear
5:53 AM19.9 °F18.0 °F92 %30.30 in7.0 miWest (270°)6.9 mphClear
6:53 AM16.0 °F14.0 °F92 %30.33 in7.0 miSW (220°)10.4 mphClear
7:53 AM18.0 °F16.0 °F92 %30.35 in4.0 miSW (220°)10.4 mphClear
8:53 AM21.9 °F19.0 °F89 %30.37 in5.0 miWSW (250°)10.4 mphClear
9:53 AM27.0 °F21.9 °F81 %30.39 in7.0 miWest (280°)9.2 mphClear
10:53 AM30.0 °F24.1 °F79 %30.40 in8.0 miWest (270°)6.9 mphClear
11:53 AM33.1 °F25.0 °F72 %30.38 in10.0 miWest (280°)8.1 mphClear
12:53 PM34.0 °F25.0 °F70 %30.36 in10.0 miWNW (300°)11.5 mphClear
1:53 PM35.1 °F25.0 °F67 %30.35 in10.0 miWest (280°)8.1 mphScattered Clouds
2:31 PM35.6 °F24.8 °F65 %30.31 in10.0 miWSW (250°)10.4 mphMostly Cloudy
2:46 PM35.6 °F24.8 °F65 %30.32 in10.0 miWest (260°)8.1 mphScattered Clouds
2:53 PM36.0 °F25.0 °F64 %30.35 in10.0 miWest (270°)6.9 mphScattered Clouds
3:53 PM35.1 °F24.1 °F64 %30.36 in10.0 miWest (260°)8.1 mphPartly Cloudy
4:53 PM28.9 °F21.9 °F75 %30.38 in10.0 miWSW (250°)4.6 mphPartly Cloudy
5:53 PM30.9 °F21.9 °F69 %30.39 in10.0 miWNW (290°)4.6 mphMostly Cloudy
6:53 PM30.9 °F21.9 °F69 %30.41 in10.0 miWNW (290°)5.8 mphOvercast
7:53 PM30.9 °F21.9 °F69 %30.41 in10.0 miWNW (290°)5.8 mphOvercast
8:53 PM23.0 °F17.1 °F78 %30.40 in10.0 miCalmClear
9:53 PM28.9 °F21.0 °F72 %30.40 in10.0 miWNW (300°)4.6 mphOvercast
10:53 PM26.1 °F21.0 °F81 %30.41 in10.0 miCalmOvercast
11:53 PM24.8 °F19.4 °F80 %30.36 in10.0 miCalmOvercast
Hourly data recorded from KVIH, located miles away from Vienna, Missouri







STORIES FROM OUR PARTNERS